CW5066 Weather Reports


Display with metric or nautical units.
time (UTC)temp
F
wind
direction
speed
MPH
gust
MPH
rain 1hr
in
rain 24hr
in
rain mn
in
humidity
%
barometer
mb
20180122061959 9 302 18.0 31.0 0.00 0.00 0.00 74 1008.2
20180122060959 9 306 15.0 35.0 0.00 0.00 0.00 73 1008.1
20180122055959 10 306 13.0 25.0 0.00 0.00 0.00 72 1007.9
20180122054959 9 304 13.0 26.0 0.00 0.00 0.00 73 1008.1
20180122053959 9 310 15.0 30.0 0.00 0.00 0.00 73 1008.1
20180122052959 9 301 14.0 29.0 0.00 0.00 0.00 73 1008.0
20180122051959 9 313 16.0 29.0 0.00 0.00 0.00 72 1008.0
20180122050959 9 315 13.0 28.0 0.00 0.00 0.00 73 1008.0
20180122045959 9 312 16.0 31.0 0.00 0.00 0.00 74 1007.9
20180122044959 9 324 16.0 31.0 0.00 0.00 0.00 74 1007.7
20180122043958 9 322 16.0 30.0 0.00 0.00 0.00 75 1007.6
20180122042959 10 319 14.0 26.0 0.00 0.00 0.00 74 1007.4
20180122042459 10 314 14.0 30.0 0.00 0.00 0.00 73 1007.4
20180122041500 10 307 12.0 27.0 0.00 0.00 0.00 73 1007.4
20180122040501 10 328 12.0 30.0 0.00 0.00 0.00 74 1007.3
20180122035501 10 314 10.0 24.0 0.00 0.00 0.00 74 1007.2
20180122034500 10 313 12.0 30.0 0.00 0.00 0.00 74 1007.2
20180122033501 10 302 13.0 25.0 0.00 0.00 0.00 74 1007.1
20180122032501 10 307 10.0 34.0 0.00 0.00 0.00 75 1007.0
20180122031500 10 310 9.0 27.0 0.00 0.00 0.00 73 1006.7
20180122030500 10 319 15.0 29.0 0.00 0.00 0.00 73 1007.4
20180122030000 10 318 12.0 29.0 0.00 0.00 0.00 74 1007.3
20180122025000 10 315 12.0 26.0 0.00 0.00 0.00 74 1007.3
20180122024000 10 322 14.0 25.0 0.00 0.00 0.00 74 1006.4
20180122023000 10 315 13.0 26.0 0.00 0.00 0.00 75 1006.2
20180122022000 11 326 13.0 31.0 0.00 0.00 0.00 76 1006.0
20180122021000 11 320 11.0 24.0 0.00 0.00 0.00 76 1005.9
20180122020000 11 323 10.0 23.0 0.00 0.00 0.00 77 1005.9
20180122015000 11 321 11.0 23.0 0.00 0.00 0.00 78 1006.5
20180122014000 11 322 10.0 23.0 0.00 0.00 0.00 78 1006.3
20180122013001 11 327 9.0 20.0 0.00 0.00 0.00 79 1006.2
20180122012000 11 344 7.0 16.0 0.00 0.00 0.00 80 1006.1
20180122011000 11 3 4.0 9.0 0.00 0.00 0.00 83 1005.9
20180122010000 11 358 4.0 12.0 0.00 0.00 0.00 82 1005.8
20180122005000 11 351 5.0 15.0 0.00 0.00 0.00 82 1005.7
20180122004000 12 357 8.0 15.0 0.00 0.00 0.00 82 1005.6
20180122003000 12 332 5.0 12.0 0.00 0.00 0.00 82 1005.2
20180122002000 12 318 2.0 9.0 0.00 0.00 0.00 84 1004.9
20180122001000 12 345 4.0 11.0 0.00 0.00 0.00 85 1005.5
20180122000000 12 347 4.0 11.0 0.00 0.00 0.00 87 1005.2
20180121235000 11 340 1.0 7.0 0.00 0.00 0.00 89 1005.1
20180121234000 11 353 0.0 3.0 0.00 0.00 0.00 89 1004.9
20180121233000 11 8 0.0 7.0 0.00 0.00 0.00 88 1004.7
20180121232001 11 2 2.0 10.0 0.00 0.00 0.00 88 1004.6
20180121231000 11 25 2.0 7.0 0.00 0.00 0.00 88 1004.2
20180121230000 11 35 2.0 10.0 0.00 0.00 0.00 88 1004.0
20180121225000 11 30 3.0 10.0 0.00 0.00 0.00 88 1003.8
20180121224000 12 30 4.0 11.0 0.00 0.00 0.00 88 1003.6
20180121223000 12 30 3.0 10.0 0.00 0.00 0.00 88 1004.1
20180121222000 12 26 5.0 10.0 0.00 0.00 0.00 88 1003.8
20180121221000 12 32 5.0 12.0 0.00 0.00 0.00 88 1003.4
20180121220000 12 35 4.0 10.0 0.00 0.00 0.00 88 1003.7
20180121215000 12 36 5.0 9.0 0.00 0.00 0.00 88 1003.4
20180121214000 12 37 5.0 12.0 0.00 0.00 0.00 88 1003.2
20180121213000 12 35 4.0 10.0 0.00 0.00 0.00 88 1002.9
20180121212000 12 39 4.0 12.0 0.00 0.00 0.00 88 1002.6
20180121210959 12 36 5.0 11.0 0.00 0.00 0.00 88 1002.4
20180121210000 12 31 4.0 10.0 0.00 0.00 0.00 88 1002.0
20180121204959 12 35 6.0 12.0 0.00 0.00 0.00 88 1001.8
20180121203959 12 35 4.0 11.0 0.00 0.00 0.00 89 1001.7
20180121203000 12 30 3.0 11.0 0.00 0.00 0.00 88 1001.4
20180121202000 12 31 4.0 13.0 0.00 0.00 0.00 88 1001.2
20180121200959 12 33 6.0 11.0 0.00 0.00 0.00 88 1000.8
20180121200000 12 30 6.0 13.0 0.00 0.00 0.00 88 1000.6
20180121195001 12 35 6.0 17.0 0.00 0.00 0.00 88 1000.5
20180121193959 12 39 5.0 14.0 0.00 0.00 0.00 88 1000.4
20180121192959 12 35 7.0 15.0 0.00 0.00 0.00 88 1000.2
20180121191959 12 38 6.0 15.0 0.00 0.00 0.00 88 1000.6
20180121190959 12 35 6.0 14.0 0.00 0.00 0.00 88 1000.3
20180121185959 12 33 7.0 17.0 0.00 0.00 0.00 88 1000.0
20180121184959 12 34 7.0 14.0 0.00 0.00 0.00 88 1000.1
20180121183959 12 29 4.0 14.0 0.00 0.00 0.00 88 1000.2
20180121182959 12 32 6.0 13.0 0.00 0.00 0.00 88 1000.1
20180121181959 13 26 4.0 13.0 0.00 0.00 0.00 88 1000.8
20180121180959 13 32 6.0 15.0 0.00 0.00 0.00 88 1000.7
20180121175959 13 27 3.0 10.0 0.00 0.00 0.00 89 1000.7
20180121174959 12 28 6.0 15.0 0.00 0.00 0.00 89 1000.6
20180121173959 12 35 6.0 16.0 0.00 0.00 0.00 88 1000.5
20180121172959 13 28 7.0 16.0 0.00 0.00 0.00 89 1000.5
20180121171959 13 31 5.0 14.0 0.00 0.00 0.00 89 1000.3
20180121170959 13 34 6.0 16.0 0.00 0.00 0.00 89 1000.1
20180121165959 13 41 5.0 13.0 0.00 0.00 0.00 89 999.9
20180121164959 13 34 7.0 17.0 0.00 0.00 0.00 89 999.8
20180121163959 13 35 4.0 14.0 0.00 0.00 0.00 90 999.5
20180121162959 13 31 5.0 13.0 0.00 0.00 0.00 90 999.4
20180121161959 13 32 3.0 14.0 0.00 0.00 0.00 90 999.4
20180121160959 13 33 2.0 12.0 0.00 0.00 0.00 90 999.1
20180121155959 12 30 4.0 16.0 0.00 0.00 0.00 90 998.9
20180121154959 12 29 4.0 14.0 0.00 0.00 0.00 90 998.7
20180121153959 12 32 4.0 16.0 0.00 0.00 0.00 90 998.5
20180121152959 13 33 3.0 10.0 0.00 0.00 0.00 90 998.3
20180121151959 12 26 3.0 10.0 0.00 0.00 0.00 90 998.1
20180121150959 12 34 4.0 12.0 0.00 0.00 0.00 90 998.6
20180121145959 12 37 3.0 11.0 0.00 0.00 0.00 90 998.3
20180121144959 12 35 4.0 14.0 0.00 0.00 0.00 90 998.0
20180121143959 12 39 2.0 10.0 0.00 0.00 0.00 90 997.4
20180121142959 12 37 4.0 11.0 0.00 0.00 0.00 90 997.2
20180121141959 12 32 4.0 12.0 0.00 0.00 0.00 90 997.2
20180121140959 12 34 4.0 11.0 0.00 0.00 0.00 90 997.2
20180121140001 12 30 7.0 14.0 0.00 0.00 0.00 90 996.9
20180121135001 12 33 5.0 12.0 0.00 0.00 0.00 90 997.8
20180121134001 12 35 5.0 12.0 0.00 0.00 0.00 90 997.8
20180121133001 12 31 4.0 10.0 0.00 0.00 0.00 90 997.8
20180121132001 13 37 4.0 10.0 0.00 0.00 0.00 90 997.8
20180121131001 13 40 4.0 11.0 0.00 0.00 0.00 90 997.8
20180121125959 13 36 5.0 10.0 0.00 0.00 0.00 90 998.0
20180121125001 13 32 4.0 11.0 0.00 0.00 0.00 90 997.8
20180121124001 13 27 5.0 10.0 0.00 0.00 0.00 90 997.8
20180121123000 13 30 4.0 9.0 0.00 0.00 0.00 90 998.6
20180121122001 13 22 4.0 12.0 0.00 0.00 0.00 90 998.5
20180121121001 13 25 4.0 12.0 0.00 0.00 0.00 90 999.0
20180121120000 14 25 4.0 9.0 0.00 0.00 0.00 90 998.7
20180121115000 14 32 3.0 10.0 0.00 0.00 0.00 90 999.3
20180121114000 14 30 4.0 11.0 0.00 0.00 0.00 90 999.3
20180121113000 14 32 4.0 9.0 0.00 0.00 0.00 90 999.9
20180121112000 14 39 3.0 7.0 0.00 0.00 0.00 90 1000.5
20180121111000 15 46 2.0 8.0 0.00 0.00 0.00 91 1001.2
20180121110000 15 44 3.0 9.0 0.00 0.00 0.00 91 1001.9
20180121105000 15 36 3.0 8.0 0.00 0.00 0.00 90 1002.4
20180121104000 15 28 2.0 8.0 0.00 0.00 0.00 91 1002.8
20180121103000 15 35 3.0 11.0 0.00 0.00 0.00 90 1002.6
20180121102000 15 32 4.0 11.0 0.00 0.00 0.00 90 1003.3
20180121101000 16 28 4.0 12.0 0.00 0.00 0.00 91 1003.0
20180121100000 16 30 6.0 13.0 0.00 0.00 0.00 91 1002.7
20180121095000 16 31 6.0 13.0 0.00 0.00 0.00 90 1002.7
20180121094000 17 35 5.0 12.0 0.00 0.00 0.00 91 1003.0
20180121093000 17 36 4.0 10.0 0.00 0.00 0.00 91 1003.6
20180121092000 18 46 3.0 9.0 0.00 0.00 0.00 91 1003.7
20180121091000 18 40 4.0 10.0 0.00 0.00 0.00 92 1003.1
20180121090000 18 44 4.0 9.0 0.00 0.00 0.00 92 1002.8
20180121085000 18 46 5.0 10.0 0.00 0.00 0.00 92 1003.4
20180121084000 18 59 2.0 5.0 0.00 0.00 0.00 92 1003.4
20180121083000 18 44 2.0 4.0 0.00 0.00 0.00 92 1004.0
20180121082000 18 20 0.0 3.0 0.00 0.00 0.00 92 1003.3
20180121081000 18 358 0.0 1.0 0.00 0.00 0.00 92 1002.8
20180121080000 18 1 0.0 3.0 0.00 0.00 0.00 92 1002.8
20180121075000 18 97 0.0 3.0 0.00 0.00 0.00 92 1003.5
20180121074000 19 113 0.0 5.0 0.00 0.00 0.00 92 1002.8
20180121073000 19 100 1.0 5.0 0.00 0.00 0.00 92 1002.7
20180121072000 19 0.0 3.0 0.00 0.00 0.00 92 1002.7
20180121071000 19 76 0.0 6.0 0.00 0.00 0.00 92 1002.5
20180121070000 19 50 2.0 10.0 0.00 0.00 0.00 92 1003.1
20180121065001 20 43 4.0 9.0 0.00 0.00 0.00 93 1003.0
20180121064001 20 41 2.0 6.0 0.00 0.00 0.00 93 1003.9
20180121063001 20 53 0.0 3.0 0.00 0.00 0.00 93 1004.0